When you browse on this site, cookies collect data to enhance your experience and personalize the content and advertising you see.
Visit our Privacy Policy to learn more. By continuing to use the site, you agree to this use of cookies and data.
  • In Deutschland
  • Länderverzeichnis
  • Für 7 Tage
  • Wassertemperatur
  • Wetterkarte
  • Widgets
  • user-avatar
    Anmelden

    Stündliche Wetter Salta

    Heute, 23 August, Freitag

    Zeit Temperatur Niederschläge Wind Luftdruck Luftfeuchtigkeit
    00:00 +10°C° 0 mm 0 m/S 657 mmHg 54%
    01:00 +9°C° 0 mm 0 m/S 656 mmHg 55%
    02:00 +10°C° 0 mm 1 m/S 656 mmHg 52%
    03:00 +8°C° 0 mm 0 m/S 655 mmHg 53%
    04:00 +8°C° 0 mm 0 m/S 655 mmHg 54%
    05:00 +8°C° 0 mm 0 m/S 654 mmHg 55%
    06:00 +9°C° 0 mm 0 m/S 655 mmHg 51%
    07:00 +11°C° 0 mm 0 m/S 656 mmHg 46%
    08:00 +13°C° 0 mm 0 m/S 657 mmHg 41%
    09:00 +16°C° 0 mm 1 m/S 657 mmHg 37%
    10:00 +19°C° 0 mm 1 m/S 657 mmHg 33%
    11:00 +20°C° 0 mm 2 m/S 657 mmHg 29%
    12:00 +21°C° 0 mm 2 m/S 657 mmHg 29%
    13:00 +22°C° 0 mm 3 m/S 656 mmHg 28%
    14:00 +24°C° 0 mm 3 m/S 656 mmHg 27%
    15:00 +22°C° 0 mm 3 m/S 655 mmHg 29%
    16:00 +21°C° 0 mm 3 m/S 654 mmHg 30%
    17:00 +21°C° 0 mm 2 m/S 653 mmHg 32%
    18:00 +18°C° 0 mm 2 m/S 653 mmHg 39%
    19:00 +16°C° 0 mm 1 m/S 653 mmHg 46%
    20:00 +12°C° 0 mm 0 m/S 652 mmHg 53%
    21:00 +12°C° 0 mm 0 m/S 652 mmHg 55%
    22:00 +11°C° 0 mm 0 m/S 652 mmHg 57%
    23:00 +11°C° 0 mm 0 m/S 652 mmHg 60%

    Morgen, 24 August, Samstag

    Zeit Temperatur Niederschläge Wind Luftdruck Luftfeuchtigkeit
    00:00 +11°C° 0 mm 0 m/S 651 mmHg 60%
    01:00 +10°C° 0 mm 0 m/S 651 mmHg 61%
    02:00 +11°C° 0 mm 1 m/S 651 mmHg 62%
    03:00 +11°C° 0 mm 1 m/S 650 mmHg 63%
    04:00 +10°C° 0 mm 1 m/S 650 mmHg 64%
    05:00 +10°C° 0 mm 1 m/S 650 mmHg 65%
    06:00 +12°C° 0 mm 1 m/S 650 mmHg 60%
    07:00 +13°C° 0 mm 1 m/S 651 mmHg 55%
    08:00 +14°C° 0 mm 1 m/S 652 mmHg 50%
    09:00 +18°C° 0 mm 1 m/S 653 mmHg 43%
    10:00 +21°C° 0 mm 1 m/S 653 mmHg 37%
    11:00 +24°C° 0 mm 2 m/S 654 mmHg 31%
    12:00 +25°C° 0 mm 2 m/S 653 mmHg 30%
    13:00 +25°C° 0 mm 3 m/S 653 mmHg 28%
    14:00 +26°C° 0 mm 3 m/S 652 mmHg 27%
    15:00 +26°C° 0 mm 3 m/S 652 mmHg 29%
    16:00 +25°C° 0 mm 3 m/S 652 mmHg 31%
    17:00 +25°C° 0 mm 2 m/S 651 mmHg 33%
    18:00 +21°C° 0 mm 2 m/S 651 mmHg 40%
    19:00 +19°C° 0 mm 1 m/S 651 mmHg 48%
    20:00 +16°C° 0 mm 1 m/S 651 mmHg 55%
    21:00 +15°C° 0 mm 1 m/S 651 mmHg 56%
    22:00 +15°C° 0 mm 1 m/S 651 mmHg 57%
    23:00 +15°C° 0 mm 1 m/S 651 mmHg 59%

    übermorgen, 25 August, Sonntag

    Zeit Temperatur Niederschläge Wind Luftdruck Luftfeuchtigkeit
    00:00 +15°C° 0 mm 1 m/S 651 mmHg 58%
    01:00 +14°C° 0 mm 1 m/S 651 mmHg 58%
    02:00 +14°C° 0 mm 1 m/S 651 mmHg 58%
    03:00 +14°C° 0 mm 1 m/S 650 mmHg 58%
    04:00 +14°C° 0 mm 1 m/S 650 mmHg 58%
    05:00 +13°C° 0 mm 1 m/S 650 mmHg 58%
    06:00 +15°C° 0 mm 1 m/S 651 mmHg 53%
    07:00 +16°C° 0 mm 1 m/S 652 mmHg 49%
    08:00 +19°C° 0 mm 1 m/S 652 mmHg 44%
    09:00 +21°C° 0 mm 1 m/S 653 mmHg 39%
    10:00 +24°C° 0 mm 1 m/S 654 mmHg 35%
    11:00 +27°C° 0 mm 1 m/S 654 mmHg 30%
    12:00 +28°C° 0 mm 2 m/S 654 mmHg 29%
    13:00 +29°C° 0 mm 2 m/S 654 mmHg 28%
    14:00 +29°C° 0 mm 3 m/S 653 mmHg 27%
    15:00 +28°C° 0 mm 3 m/S 653 mmHg 30%
    16:00 +27°C° 0 mm 4 m/S 653 mmHg 33%
    17:00 +27°C° 0 mm 4 m/S 653 mmHg 36%
    18:00 +24°C° 0 mm 3 m/S 653 mmHg 45%
    19:00 +20°C° 0 mm 2 m/S 653 mmHg 53%
    20:00 +19°C° 0 mm 1 m/S 653 mmHg 62%
    21:00 +18°C° 0 mm 1 m/S 653 mmHg 63%
    22:00 +18°C° 0 mm 1 m/S 653 mmHg 64%
    23:00 +18°C° 0 mm 1 m/S 654 mmHg 66%

    26 August, Montag

    Zeit Temperatur Niederschläge Wind Luftdruck Luftfeuchtigkeit
    00:00 +16°C° 0 mm 1 m/S 654 mmHg 69%
    01:00 +15°C° 0 mm 1 m/S 654 mmHg 73%
    02:00 +14°C° 0 mm 1 m/S 653 mmHg 77%
    03:00 +14°C° 0 mm 1 m/S 653 mmHg 77%
    04:00 +13°C° 0 mm 1 m/S 653 mmHg 78%
    05:00 +13°C° 0 mm 1 m/S 653 mmHg 78%
    06:00 +15°C° 0 mm 1 m/S 653 mmHg 70%
    07:00 +15°C° 0 mm 0 m/S 654 mmHg 62%
    08:00 +17°C° 0 mm 0 m/S 655 mmHg 54%
    09:00 +22°C° 0 mm 1 m/S 655 mmHg 48%
    10:00 +24°C° 0 mm 1 m/S 656 mmHg 41%
    11:00 +27°C° 0 mm 2 m/S 656 mmHg 35%
    12:00 +28°C° 0 mm 2 m/S 656 mmHg 32%
    13:00 +29°C° 0 mm 2 m/S 655 mmHg 30%
    14:00 +29°C° 0 mm 3 m/S 654 mmHg 28%
    15:00 +29°C° 0 mm 3 m/S 654 mmHg 30%
    16:00 +28°C° 0 mm 3 m/S 654 mmHg 31%
    17:00 +28°C° 0 mm 3 m/S 653 mmHg 32%
    18:00 +25°C° 0 mm 2 m/S 653 mmHg 42%
    19:00 +22°C° 0 mm 1 m/S 653 mmHg 51%
    20:00 +19°C° 0 mm 1 m/S 652 mmHg 60%
    21:00 +18°C° 0 mm 1 m/S 652 mmHg 63%
    22:00 +16°C° 0 mm 0 m/S 653 mmHg 66%
    23:00 +15°C° 0 mm 0 m/S 653 mmHg 68%

    27 August, Dienstag

    Zeit Temperatur Niederschläge Wind Luftdruck Luftfeuchtigkeit
    00:00 +15°C° 0 mm 0 m/S 652 mmHg 69%
    01:00 +15°C° 0 mm 0 m/S 652 mmHg 70%
    02:00 +14°C° 0 mm 0 m/S 652 mmHg 71%
    03:00 +14°C° 0 mm 0 m/S 652 mmHg 71%
    04:00 +14°C° 0 mm 0 m/S 652 mmHg 71%
    05:00 +14°C° 0 mm 1 m/S 651 mmHg 71%
    06:00 +15°C° 0 mm 0 m/S 652 mmHg 64%
    07:00 +17°C° 0 mm 0 m/S 653 mmHg 58%
    08:00 +18°C° 0 mm 0 m/S 654 mmHg 52%
    09:00 +23°C° 0 mm 1 m/S 655 mmHg 47%
    10:00 +25°C° 0 mm 1 m/S 656 mmHg 42%
    11:00 +27°C° 0 mm 2 m/S 656 mmHg 37%
    12:00 +28°C° 0 mm 2 m/S 656 mmHg 35%
    13:00 +29°C° 0 mm 3 m/S 655 mmHg 33%
    14:00 +30°C° 0 mm 3 m/S 655 mmHg 31%
    15:00 +30°C° 0 mm 3 m/S 655 mmHg 33%
    16:00 +29°C° 0 mm 3 m/S 654 mmHg 34%
    17:00 +29°C° 0 mm 3 m/S 654 mmHg 35%
    18:00 +26°C° 0 mm 2 m/S 654 mmHg 44%
    19:00 +23°C° 0 mm 1 m/S 653 mmHg 52%
    20:00 +21°C° 0 mm 1 m/S 653 mmHg 60%
    21:00 +20°C° 0 mm 1 m/S 653 mmHg 63%
    22:00 +18°C° 0 mm 0 m/S 653 mmHg 66%
    23:00 +17°C° 0 mm 0 m/S 653 mmHg 68%

    28 August, Mittwoch

    Zeit Temperatur Niederschläge Wind Luftdruck Luftfeuchtigkeit
    00:00 +19°C° 0 mm 1 m/S 652 mmHg 69%
    01:00 +19°C° 0 mm 1 m/S 652 mmHg 69%
    02:00 +19°C° 0 mm 1 m/S 652 mmHg 70%
    03:00 +18°C° 0 mm 1 m/S 652 mmHg 70%
    04:00 +18°C° 0 mm 1 m/S 652 mmHg 70%
    05:00 +18°C° 0 mm 1 m/S 651 mmHg 69%
    06:00 +19°C° 0 mm 1 m/S 652 mmHg 63%
    07:00 +21°C° 0 mm 1 m/S 653 mmHg 56%
    08:00 +20°C° 0 mm 0 m/S 653 mmHg 50%
    09:00 +25°C° 0 mm 1 m/S 654 mmHg 45%
    10:00 +27°C° 0 mm 2 m/S 654 mmHg 40%
    11:00 +30°C° 0 mm 2 m/S 654 mmHg 34%
    12:00 +31°C° 0 mm 3 m/S 654 mmHg 32%
    13:00 +33°C° 0 mm 3 m/S 653 mmHg 30%
    14:00 +34°C° 0 mm 4 m/S 653 mmHg 28%
    15:00 +33°C° 0 mm 4 m/S 652 mmHg 29%
    16:00 +33°C° 0 mm 3 m/S 652 mmHg 30%
    17:00 +31°C° 0 mm 3 m/S 651 mmHg 31%
    18:00 +29°C° 0 mm 3 m/S 651 mmHg 38%
    19:00 +26°C° 0 mm 2 m/S 651 mmHg 44%
    20:00 +23°C° 0 mm 1 m/S 651 mmHg 50%
    21:00 +23°C° 0 mm 1 m/S 651 mmHg 50%
    22:00 +22°C° 0 mm 1 m/S 651 mmHg 51%
    23:00 +22°C° 0 mm 1 m/S 651 mmHg 51%
    Mehr zeigen